Hourly Weather Muntovo

Today, 26 September, Sunday

Time Temperature Precipitation Wind Pressure Humidity
00:00 +9°C° 0 mm 3 mps 741 mmHg 84%
01:00 +9°C° 0.4 mm 3 mps 741 mmHg 87%
02:00 +9°C° 0.4 mm 3 mps 741 mmHg 90%
03:00 +8°C° 0.4 mm 3 mps 740 mmHg 92%
04:00 +8°C° 0.9 mm 3 mps 740 mmHg 93%
05:00 +8°C° 0.9 mm 3 mps 739 mmHg 94%
06:00 +8°C° 0.9 mm 3 mps 739 mmHg 95%
07:00 +8°C° 0.8 mm 3 mps 739 mmHg 96%
08:00 +8°C° 0.8 mm 3 mps 738 mmHg 96%
09:00 +9°C° 0.8 mm 3 mps 738 mmHg 96%
10:00 +9°C° 0.4 mm 3 mps 738 mmHg 94%
11:00 +9°C° 0.4 mm 2 mps 738 mmHg 93%
12:00 +9°C° 0.4 mm 2 mps 738 mmHg 91%
13:00 +9°C° 0.2 mm 2 mps 739 mmHg 92%
14:00 +9°C° 0.2 mm 2 mps 739 mmHg 92%
15:00 +9°C° 0.2 mm 2 mps 739 mmHg 92%
16:00 +9°C° 0.1 mm 3 mps 740 mmHg 92%
17:00 +9°C° 0.1 mm 3 mps 741 mmHg 93%
18:00 +8°C° 0.1 mm 4 mps 741 mmHg 93%
19:00 +8°C° 0.1 mm 4 mps 742 mmHg 94%
20:00 +8°C° 0.1 mm 4 mps 743 mmHg 94%
21:00 +8°C° 0.1 mm 4 mps 743 mmHg 95%
22:00 +8°C° 0.2 mm 4 mps 744 mmHg 95%
23:00 +8°C° 0.2 mm 4 mps 744 mmHg 94%

Tomorrow, 27 September, Monday

Time Temperature Precipitation Wind Pressure Humidity
00:00 +8°C° 0.2 mm 5 mps 745 mmHg 94%
01:00 +8°C° 0 mm 5 mps 745 mmHg 93%
02:00 +8°C° 0 mm 5 mps 746 mmHg 93%
03:00 +8°C° 0 mm 5 mps 747 mmHg 92%
04:00 +7°C° 0 mm 5 mps 747 mmHg 93%
05:00 +6°C° 0 mm 5 mps 748 mmHg 93%
06:00 +6°C° 0 mm 5 mps 748 mmHg 93%
07:00 +6°C° 0 mm 5 mps 749 mmHg 92%
08:00 +7°C° 0 mm 5 mps 749 mmHg 90%
09:00 +7°C° 0 mm 5 mps 749 mmHg 89%
10:00 +8°C° 0 mm 5 mps 750 mmHg 88%
11:00 +8°C° 0 mm 5 mps 750 mmHg 86%
12:00 +10°C° 0 mm 4 mps 751 mmHg 85%
13:00 +9°C° 0.1 mm 5 mps 751 mmHg 84%
14:00 +9°C° 0.1 mm 5 mps 751 mmHg 83%
15:00 +9°C° 0.1 mm 5 mps 751 mmHg 81%
16:00 +9°C° 0.1 mm 5 mps 752 mmHg 84%
17:00 +8°C° 0.1 mm 4 mps 752 mmHg 87%
18:00 +7°C° 0.1 mm 4 mps 753 mmHg 89%
19:00 +7°C° 0 mm 4 mps 753 mmHg 89%
20:00 +7°C° 0 mm 4 mps 753 mmHg 89%
21:00 +7°C° 0 mm 4 mps 754 mmHg 88%
22:00 +6°C° 0 mm 4 mps 754 mmHg 88%
23:00 +6°C° 0 mm 4 mps 754 mmHg 87%

Day after tomorrow, 28 September, Tuesday

Time Temperature Precipitation Wind Pressure Humidity
00:00 +5°C° 0 mm 4 mps 755 mmHg 86%
01:00 +5°C° 0 mm 4 mps 755 mmHg 86%
02:00 +5°C° 0 mm 4 mps 756 mmHg 85%
03:00 +5°C° 0 mm 4 mps 756 mmHg 84%
04:00 +4°C° 0 mm 4 mps 756 mmHg 83%
05:00 +4°C° 0 mm 4 mps 757 mmHg 81%
06:00 +4°C° 0 mm 4 mps 757 mmHg 80%
07:00 +5°C° 0 mm 4 mps 757 mmHg 78%
08:00 +5°C° 0 mm 4 mps 758 mmHg 77%
09:00 +5°C° 0 mm 4 mps 758 mmHg 75%
10:00 +6°C° 0 mm 4 mps 759 mmHg 69%
11:00 +7°C° 0 mm 4 mps 759 mmHg 63%
12:00 +7°C° 0 mm 5 mps 759 mmHg 57%
13:00 +8°C° 0 mm 4 mps 759 mmHg 54%
14:00 +8°C° 0 mm 4 mps 759 mmHg 51%
15:00 +10°C° 0 mm 3 mps 760 mmHg 48%
16:00 +9°C° 0 mm 3 mps 760 mmHg 53%
17:00 +7°C° 0 mm 3 mps 760 mmHg 59%
18:00 +6°C° 0 mm 2 mps 760 mmHg 64%
19:00 +5°C° 0 mm 2 mps 761 mmHg 67%
20:00 +5°C° 0 mm 2 mps 761 mmHg 69%
21:00 +4°C° 0 mm 2 mps 761 mmHg 72%
22:00 +3°C° 0 mm 2 mps 762 mmHg 74%
23:00 +3°C° 0 mm 2 mps 762 mmHg 76%

29 September, Wednesday

Time Temperature Precipitation Wind Pressure Humidity
00:00 +3°C° 0 mm 2 mps 762 mmHg 78%
01:00 +2°C° 0 mm 2 mps 762 mmHg 79%
02:00 +2°C° 0 mm 2 mps 762 mmHg 80%
03:00 +2°C° 0 mm 2 mps 762 mmHg 81%
04:00 +2°C° 0 mm 2 mps 762 mmHg 82%
05:00 +2°C° 0 mm 2 mps 762 mmHg 84%
06:00 +1°C° 0 mm 2 mps 762 mmHg 85%
07:00 +3°C° 0 mm 2 mps 763 mmHg 79%
08:00 +4°C° 0 mm 2 mps 763 mmHg 73%
09:00 +6°C° 0 mm 2 mps 763 mmHg 67%
10:00 +7°C° 0 mm 2 mps 763 mmHg 63%
11:00 +8°C° 0 mm 2 mps 763 mmHg 60%
12:00 +10°C° 0 mm 2 mps 763 mmHg 56%
13:00 +10°C° 0 mm 3 mps 763 mmHg 57%
14:00 +11°C° 0 mm 3 mps 762 mmHg 57%
15:00 +11°C° 0 mm 3 mps 762 mmHg 57%
16:00 +10°C° 0 mm 3 mps 762 mmHg 63%
17:00 +9°C° 0 mm 2 mps 762 mmHg 69%
18:00 +8°C° 0 mm 2 mps 762 mmHg 75%
19:00 +7°C° 0 mm 2 mps 762 mmHg 77%
20:00 +7°C° 0 mm 2 mps 762 mmHg 80%
21:00 +6°C° 0 mm 2 mps 762 mmHg 82%
22:00 +7°C° 0 mm 2 mps 762 mmHg 81%
23:00 +7°C° 0 mm 2 mps 762 mmHg 81%

30 September, Thursday

Time Temperature Precipitation Wind Pressure Humidity
00:00 +7°C° 0 mm 2 mps 762 mmHg 80%
01:00 +7°C° 0 mm 2 mps 762 mmHg 81%
02:00 +7°C° 0 mm 2 mps 762 mmHg 82%
03:00 +8°C° 0 mm 2 mps 762 mmHg 83%
04:00 +7°C° 0 mm 2 mps 762 mmHg 84%
05:00 +7°C° 0 mm 2 mps 762 mmHg 85%
06:00 +7°C° 0 mm 2 mps 762 mmHg 87%
07:00 +8°C° 0 mm 2 mps 762 mmHg 85%
08:00 +8°C° 0 mm 2 mps 762 mmHg 83%
09:00 +9°C° 0 mm 2 mps 762 mmHg 81%
10:00 +9°C° 0 mm 2 mps 762 mmHg 78%
11:00 +10°C° 0 mm 2 mps 762 mmHg 75%
12:00 +12°C° 0 mm 2 mps 762 mmHg 72%
13:00 +13°C° 0 mm 2 mps 762 mmHg 68%
14:00 +13°C° 0 mm 3 mps 762 mmHg 64%
15:00 +14°C° 0 mm 3 mps 762 mmHg 61%
16:00 +12°C° 0 mm 3 mps 762 mmHg 67%
17:00 +12°C° 0 mm 2 mps 761 mmHg 74%
18:00 +10°C° 0 mm 2 mps 761 mmHg 81%
19:00 +9°C° 0 mm 2 mps 761 mmHg 84%
20:00 +8°C° 0 mm 2 mps 761 mmHg 86%
21:00 +8°C° 0 mm 2 mps 762 mmHg 89%
22:00 +7°C° 0 mm 2 mps 762 mmHg 90%
23:00 +7°C° 0 mm 2 mps 762 mmHg 91%

1 October, Friday

Time Temperature Precipitation Wind Pressure Humidity
00:00 +7°C° 0 mm 2 mps 762 mmHg 91%
01:00 +7°C° 0 mm 2 mps 762 mmHg 92%
02:00 +6°C° 0 mm 2 mps 762 mmHg 92%
03:00 +6°C° 0 mm 2 mps 762 mmHg 93%
04:00 +6°C° 0 mm 2 mps 762 mmHg 93%
05:00 +6°C° 0 mm 2 mps 761 mmHg 93%
06:00 +6°C° 0 mm 2 mps 761 mmHg 93%
07:00 +7°C° 0 mm 2 mps 761 mmHg 87%
08:00 +8°C° 0 mm 2 mps 761 mmHg 81%
09:00 +10°C° 0 mm 2 mps 761 mmHg 74%
10:00 +12°C° 0 mm 2 mps 761 mmHg 69%
11:00 +14°C° 0 mm 2 mps 761 mmHg 64%
12:00 +15°C° 0 mm 2 mps 761 mmHg 59%
13:00 +16°C° 0 mm 2 mps 761 mmHg 58%
14:00 +16°C° 0 mm 2 mps 760 mmHg 57%
15:00 +16°C° 0 mm 2 mps 760 mmHg 56%
16:00 +15°C° 0 mm 2 mps 760 mmHg 62%
17:00 +13°C° 0 mm 2 mps 760 mmHg 69%
18:00 +12°C° 0 mm 2 mps 760 mmHg 76%
19:00 +11°C° 0 mm 1 mps 760 mmHg 78%
20:00 +10°C° 0 mm 1 mps 760 mmHg 81%
21:00 +10°C° 0 mm 1 mps 760 mmHg 84%
22:00 +9°C° 0 mm 1 mps 760 mmHg 85%
23:00 +9°C° 0 mm 1 mps 760 mmHg 87%
Show more

We Need Your Consent

Meteoprog and our Service Providers may store and access personal data such as cookies, device identifiers or other similar technologies on your device and process such data to personalise content and ads, as well as provide social media features and to analyse the traffic.

  • Store and/or access information on your device

    Cookies, device identifiers or other information can be stored or accessed on your device for the purposes indicated above.

  • Personalised ads and content, ad and content measurement, audience insights, and products development

    Ads and content can be personalised based on a profile. More data can be added to better personalise ads and content. Ad and content performance can be measured. Insights about the audience who saw the ads and content can be derived. Such data can be used to develop or improve user’s experience, systems and software.

By clicking ‘I Agree’ you will allow the use of indicated cookies, device identifiers, web beacons or other similar technologies. Your settings can be changed in the browser on your device.

For certain purposes, legitimate interests may be relied on, rather than consent. You can read more about this in our Privacy and Cookie Policy.